[[{"header":{"parameterUnit":"m.s-1","parameterCategory":1,"la1":30.2991,"la2":30.254,"lo1":-89.0895,"lo2":-89.0444,"dy":0.0017,"dx":0.0017,"nx":28,"ny":28,"refTime":"2023-07-30T21:00:00:Z","depth":0,"parameterNumber":2,"parameterNumberName":"U-component_of_WINDS"},"data":[0,0,0,0,0,0,0,0,0,0,0,0,0,0,0,0,0,0,0,0,0,0,0,0,0,0,0,0,0,0,0,0,0,0,0,0,0,0,0,0,0,0,0,0,0,0,0,0,0,0,0,0,0,0,0,0,0,0,0.9283,0.9284,0,0.9398,0.9399,0.9401,0.9395,0.9393,0.9392,0.939,0.9512,0.9517,0.9521,0,0,0,0,0,0,0,0,0,0,0,0,0,0.9062,0.9066,0.9283,0.9285,0.9286,0.9398,0.9399,0.9401,0.9395,0.9393,0.9391,0.9389,0.951,0.9516,0.9522,0,0,0,0,0,0,0,0,0,0,0,0,0,0.9166,0.9068,0.9283,0.9296,0.9299,0.9398,0.9399,0.9401,0.9396,0.9393,0.9391,0.9388,0.9508,0.9515,0.9522,0.9616,0,0,0.9544,0.9548,0,0,0,0,0,0,0,0,0.916,0.9174,0.9293,0.9296,0.9298,0.9379,0.9366,0.9474,0.9396,0.9359,0.939,0.9387,0.947,0.948,0.9507,0.9622,0.9627,0.9545,0.9549,0.9552,0.9554,0,0,0,0,0,0,0,0.9153,0.9169,0.9329,0.9295,0.9298,0.9298,0.931,0.9387,0.9427,0.9362,0.9362,0.9375,0.9471,0.95,0.951,0.9629,0.9545,0.9551,0.9556,0.9558,0.9827,0.983,0,0,0,0,0,0,0.9142,0.9163,0.9325,0.9332,0.9222,0.9304,0.9317,0.9356,0.9426,0.9435,0.9377,0.9375,0.9489,0.9502,0.9514,0.963,0.9552,0.9559,0.9563,0.9825,0.9828,0.9831,0,0,0,0,0,0,0.9137,0.9157,0.932,0.9248,0.9268,0.931,0.9354,0.936,0.9389,0.9438,0.9445,0.94,0.9488,0.9504,0.9591,0.9634,0.9562,0.9569,0.9821,0.9826,0.983,0.9861,0,0,0,0,0,0,0.9131,0.9155,0.919,0.9248,0.9272,0.9394,0.9357,0.9364,0.9401,0.9398,0.9461,0.9469,0.9487,0.958,0.9598,0.9643,0.9575,0.9818,0.9823,0.9828,0.9856,0.9866,0.9874,0,0,0,0,0,0.9123,0.9195,0.9192,0.9212,0.9317,0.9396,0.941,0.9429,0.9404,0.9441,0.9472,0.9467,0.9626,0.9589,0.9609,0.9657,0.9815,0.9822,0.9828,0.9852,0.9864,0.9874,0,0,0,0,0,0,0.9143,0.9203,0.92,0.9293,0.934,0.9395,0.9442,0.9441,0.9496,0.9492,0.9514,0.9528,0.9615,0.9644,0.9602,0.9751,0.9718,0.9728,0.9729,0.9741,0.9749,0.9741,0.958,0,0,0,0,0,0.9158,0.9216,0.9266,0.9343,0.9366,0.94,0.9435,0.9445,0.9495,0.9515,0.9553,0.9602,0.9663,0.9703,0.9762,0.986,0.9874,0.9902,0.9911,0.9918,0.9928,0.9982,0.9996,0.9852,0.9852,0.9852,0,0,0.919,0.923,0.9265,0.9348,0.9385,0.9446,0.9417,0.9482,0.9528,0.9526,0.961,0.9639,0.9695,0.9788,0.9831,0.9815,0.997,0.9926,0.9931,0.9937,0.999,1.0004,1.0016,0.9856,0.9856,0.9855,0,0,0.9279,0.9315,0.9383,0.9421,0.9477,0.9498,0.9515,0.9571,0.959,0.9674,0.9673,0.9728,0.9833,0.9874,0.9908,1.0012,1.001,1.003,1.0077,1.013,1.0141,1.0152,1.019,1.0203,1.0039,1.004,1.004,0,0.9312,0.9403,0.9419,0.9485,0.9522,0.952,0.959,0.9626,0.9699,0.9726,0.9706,0.9838,0.9876,0.9978,1.0003,1.0031,1.0051,1.0024,1.0138,1.0149,1.0158,1.0195,1.0209,1.0042,1.0042,1.0041,1.0041,0,0.9441,0.9504,0.9553,0.9622,0.9664,0.9732,0.9759,0.98,0.9807,0.9831,0.9917,0.9962,1.003,1.0055,1.0062,1.0159,1.0148,1.0133,1.01,1.0174,1.0209,1.0223,1.0045,1.0044,1.0044,1.0043,0,0,0.9548,0.9624,0.9642,0.9674,0.9735,0.9785,0.9852,0.9918,0.9953,1.0003,1.0062,1.015,1.0137,1.0175,1.0187,1.0233,1.0314,1.0213,1.0215,1.0232,1.0425,1.0436,1.0452,1.0312,1.0315,1.0317,1.042,0,0.9645,0.9765,0.9781,0.9887,0.9946,0.9945,1.0004,1.0049,1.0073,1.0127,1.0154,1.0217,1.0194,1.0218,1.0263,1.0295,1.0354,1.0287,1.0369,1.0371,1.0356,1.0471,1.0483,1.0579,1.0434,1.0436,1.0438,0,0.9775,0.9827,0.9939,0.9992,1.0017,1.007,1.0132,1.0183,1.0234,1.0248,1.0291,1.0297,1.0368,1.033,1.043,1.0385,1.0419,1.0439,1.0443,1.0453,1.041,1.0485,1.061,1.0625,1.046,1.0458,1.0456,0,0.9843,0.9941,1.0021,1.0048,1.0112,1.0149,1.0178,1.0226,1.0264,1.0318,1.0343,1.0405,1.0439,1.0487,1.051,1.048,1.0609,1.0573,1.0624,1.0624,1.0653,1.0651,1.0787,1.0672,1.0672,1.0672,1.0671,0,0.9951,1.002,1.0053,1.0102,1.018,1.0197,1.0274,1.0301,1.0344,1.0399,1.0402,1.0454,1.048,1.0537,1.0555,1.0635,1.065,1.0665,1.067,1.0666,1.0664,1.069,1.0685,1.0675,1.0675,1.0674,1.0673,0,1.0041,1.0066,1.0153,1.0205,1.022,1.0275,1.0321,1.0369,1.0392,1.0462,1.048,1.0517,1.0583,1.061,1.0692,1.0704,1.0797,1.0795,1.078,1.0782,1.0832,1.0828,1.099,1.1013,1.0882,1.0883,1.0884,0,1.0109,1.0162,1.022,1.0256,1.0286,1.0345,1.0383,1.0403,1.0443,1.0505,1.0546,1.0612,1.0666,1.0773,1.0808,1.087,1.0871,1.0924,1.0881,1.0876,1.0874,1.0871,1.0877,1.0932,1.0934,1.0935,1.0936,0,1.0228,1.0237,1.0292,1.0351,1.0397,1.0445,1.0492,1.0522,1.0549,1.0594,1.0662,1.0703,1.0786,1.0852,1.0917,1.0947,1.0947,1.0948,1.0964,1.0962,1.0951,1.0959,1.0803,1.0945,1.0944,1.0944,1.0943,1.0943,1.031,1.0357,1.0405,1.0466,1.0503,1.0547,1.0595,1.0623,1.0679,1.0747,1.0755,1.0828,1.0878,1.0964,1.0997,1.1055,1.1041,1.1064,1.107,1.1075,1.1079,1.094,1.1066,1.1066,1.1066,1.1066,1.1066,0,1.043,1.046,1.0516,1.0581,1.063,1.0622,1.0674,1.0715,1.0779,1.0824,1.0877,1.0954,1.1018,1.1057,1.1122,1.1161,1.1162,1.1177,1.1176,1.1183,1.1087,1.1068,1.1175,1.1175,1.1175,1.1175,1.1175,1.1175,1.0498,1.0578,1.0593,1.0691,1.0721,1.0791,1.0821,1.0862,1.0898,1.0984,1.1037,1.1061,1.1105,1.1172,1.1231,1.1241,1.1265,1.1282,1.1291,1.1201,1.119,1.1179,1.1161,1.1286,1.1286,1.1382,1.1383,1.1384]},{"header":{"parameterUnit":"m.s-1","parameterCategory":1,"la1":30.2991,"la2":30.254,"lo1":-89.0895,"lo2":-89.0444,"dy":0.0017,"dx":0.0017,"nx":28,"ny":28,"refTime":"2023-07-30T21:00:00:Z","depth":0,"parameterNumber":3,"parameterNumberName":"V-component_of_WINDS"},"data":[0,0,0,0,0,0,0,0,0,0,0,0,0,0,0,0,0,0,0,0,0,0,0,0,0,0,0,0,0,0,0,0,0,0,0,0,0,0,0,0,0,0,0,0,0,0,0,0,0,0,0,0,0,0,0,0,0,0,1.6224,1.6224,0,1.6208,1.6208,1.6208,1.618,1.6179,1.6179,1.6178,1.616,1.6159,1.6159,0,0,0,0,0,0,0,0,0,0,0,0,0,1.6227,1.6227,1.6224,1.6224,1.6224,1.6208,1.6208,1.6208,1.618,1.6179,1.6179,1.6178,1.616,1.6159,1.6159,0,0,0,0,0,0,0,0,0,0,0,0,0,1.622,1.6227,1.6225,1.6208,1.6207,1.6208,1.6208,1.6208,1.618,1.6179,1.6178,1.6178,1.616,1.6159,1.6159,1.6175,0,0,1.6159,1.6159,0,0,0,0,0,0,0,0,1.622,1.622,1.6211,1.6209,1.6208,1.6195,1.6202,1.6196,1.618,1.619,1.6178,1.6177,1.6172,1.6171,1.6169,1.6174,1.6173,1.6159,1.6159,1.6159,1.6159,0,0,0,0,0,0,0,1.6221,1.622,1.6218,1.6211,1.6209,1.62,1.6198,1.6201,1.6185,1.6189,1.6187,1.6186,1.6171,1.6169,1.6169,1.6173,1.6159,1.6159,1.6159,1.6159,1.6184,1.6184,0,0,0,0,0,0,1.6224,1.6221,1.6218,1.6217,1.6212,1.6201,1.6199,1.62,1.6185,1.6182,1.6186,1.6184,1.617,1.6169,1.6168,1.6181,1.6159,1.6159,1.6159,1.6183,1.6184,1.6184,0,0,0,0,0,0,1.6224,1.6224,1.6219,1.6219,1.6217,1.6202,1.6203,1.62,1.6199,1.6183,1.618,1.6188,1.6169,1.6168,1.6172,1.6181,1.6159,1.6159,1.6182,1.6183,1.6184,1.6211,0,0,0,0,0,0,1.6225,1.6225,1.6232,1.6219,1.6217,1.6225,1.6204,1.62,1.6199,1.6196,1.6184,1.6181,1.6169,1.6172,1.6172,1.618,1.6159,1.6181,1.6183,1.6184,1.6209,1.6213,1.6216,0,0,0,0,0,1.6225,1.624,1.6232,1.6232,1.6226,1.6226,1.6225,1.6211,1.62,1.6205,1.6195,1.6182,1.618,1.6173,1.6173,1.6181,1.6181,1.6182,1.6184,1.6208,1.6212,1.6216,0,0,0,0,0,0,1.6255,1.6239,1.6229,1.6242,1.6235,1.6221,1.6228,1.6216,1.6213,1.621,1.6192,1.6189,1.6195,1.6188,1.6181,1.6192,1.6178,1.6179,1.6196,1.62,1.6204,1.6204,1.6159,0,0,0,0,0,1.6263,1.6265,1.6251,1.6263,1.626,1.6245,1.6244,1.6233,1.6226,1.6223,1.6213,1.6205,1.6202,1.6201,1.6198,1.6208,1.6203,1.6213,1.6216,1.6219,1.622,1.6221,1.6224,1.6189,1.6189,1.6189,0,0,1.628,1.6271,1.6274,1.6268,1.6262,1.6263,1.6243,1.6246,1.6245,1.6223,1.6226,1.6218,1.6208,1.6214,1.6216,1.6209,1.6229,1.6221,1.6223,1.6223,1.6223,1.6226,1.6229,1.619,1.619,1.619,0,0,1.631,1.6305,1.6313,1.6306,1.6297,1.6286,1.6288,1.6275,1.6268,1.6271,1.6253,1.6252,1.6249,1.6241,1.6237,1.6259,1.6246,1.6259,1.6276,1.6277,1.628,1.6282,1.6287,1.629,1.626,1.626,1.626,0,1.6332,1.6334,1.6318,1.6321,1.6317,1.6297,1.6303,1.6297,1.6287,1.6284,1.6276,1.6269,1.6261,1.6263,1.6268,1.6266,1.6265,1.626,1.6281,1.6283,1.6285,1.629,1.6292,1.6262,1.6262,1.6262,1.6261,0,1.6359,1.636,1.6367,1.6357,1.6354,1.6359,1.6342,1.6341,1.6329,1.6319,1.6319,1.6308,1.6301,1.6301,1.629,1.63,1.6295,1.6284,1.6269,1.629,1.6294,1.6296,1.6264,1.6263,1.6263,1.6263,0,0,1.6409,1.6388,1.6391,1.6384,1.6371,1.637,1.6372,1.6365,1.6363,1.6356,1.6355,1.6351,1.6339,1.6334,1.6322,1.6323,1.6338,1.6311,1.631,1.6315,1.6345,1.6352,1.6355,1.6329,1.6329,1.633,1.6345,0,1.6435,1.6438,1.6422,1.6429,1.6427,1.6406,1.6407,1.6398,1.6387,1.6383,1.637,1.6367,1.6353,1.6349,1.635,1.6336,1.6343,1.6335,1.6326,1.6326,1.6328,1.6357,1.6366,1.6381,1.6346,1.6347,1.6347,0,1.6466,1.6459,1.6465,1.6448,1.6447,1.6448,1.6438,1.6435,1.6423,1.6414,1.6407,1.6393,1.6391,1.6377,1.6372,1.6367,1.6362,1.6354,1.6354,1.6352,1.6337,1.6354,1.6386,1.6388,1.635,1.635,1.635,0,1.6499,1.6491,1.6493,1.6488,1.6469,1.647,1.6461,1.6448,1.6443,1.6434,1.643,1.6421,1.6416,1.6408,1.639,1.6382,1.6386,1.6372,1.6377,1.6377,1.6379,1.6379,1.6408,1.6378,1.6378,1.6378,1.6378,0,1.6528,1.6532,1.6507,1.6508,1.651,1.6491,1.6493,1.6483,1.647,1.6467,1.6448,1.6445,1.6423,1.6416,1.6402,1.6399,1.6397,1.6389,1.6385,1.639,1.639,1.6385,1.6383,1.6378,1.6378,1.6378,1.6378,0,1.6565,1.6548,1.6548,1.6529,1.6524,1.6526,1.6509,1.6507,1.6495,1.649,1.6488,1.6468,1.6459,1.644,1.6427,1.6417,1.6416,1.641,1.6421,1.6418,1.6424,1.6423,1.645,1.6452,1.6422,1.6422,1.6423,0,1.6584,1.6586,1.6566,1.6563,1.6555,1.655,1.6544,1.6525,1.6519,1.6503,1.6503,1.6493,1.6484,1.647,1.6453,1.6442,1.6434,1.6444,1.6432,1.6436,1.6432,1.6431,1.643,1.6447,1.6447,1.6448,1.6448,0,1.6618,1.6609,1.6603,1.6592,1.6586,1.6577,1.6567,1.6564,1.6542,1.6536,1.6527,1.652,1.6505,1.6494,1.6479,1.6469,1.6454,1.6452,1.6452,1.6457,1.6462,1.6457,1.6426,1.6451,1.6451,1.6451,1.6451,1.645,1.6645,1.6644,1.663,1.6622,1.6612,1.6602,1.6599,1.6585,1.6577,1.6563,1.6552,1.6543,1.6526,1.6505,1.6496,1.6487,1.648,1.6481,1.6481,1.6481,1.6482,1.6464,1.6484,1.6484,1.6484,1.6484,1.6484,0,1.6676,1.6665,1.6658,1.6644,1.6637,1.6623,1.661,1.6605,1.6597,1.6584,1.6575,1.6562,1.6551,1.6532,1.6518,1.6515,1.6507,1.6512,1.6511,1.6508,1.649,1.6491,1.6518,1.6518,1.6518,1.6518,1.6518,1.6518,1.6692,1.6689,1.6678,1.6669,1.6657,1.6649,1.6642,1.6632,1.6621,1.6608,1.6598,1.6586,1.6569,1.6554,1.6542,1.6536,1.6531,1.6538,1.653,1.6513,1.651,1.6507,1.6507,1.6537,1.6537,1.6548,1.6548,1.6548]}]]